Time,TemperatureF,DewpointF,PressureIn,WindDirection,WindDirectionDegrees,WindSpeedMPH,WindSpeedGustMPH,Humidity,HourlyPrecipIn,Conditions,Clouds,dailyrainin,SolarRadiationWatts/m^2,SoftwareType,DateUTC
2013-01-29 00:01:00,22.0,18.0,-100.00,East,91,6.0,9.0,86,0.00,,,0.00,0.000000,,2013-01-29 07:01:00,
2013-01-29 00:11:00,22.0,18.0,-100.00,East,91,6.0,9.0,86,0.00,,,0.00,0.000000,,2013-01-29 07:11:00,
2013-01-29 00:21:00,22.0,18.0,-100.00,East,91,6.0,9.0,86,0.00,,,0.00,0.000000,,2013-01-29 07:21:00,
2013-01-29 00:31:00,22.0,18.0,-100.00,East,91,6.0,9.0,86,0.00,,,0.00,0.000000,,2013-01-29 07:31:00,
2013-01-29 00:52:00,22.0,18.0,-100.00,ESE,104,5.0,7.0,86,0.00,,,0.00,0.000000,,2013-01-29 07:52:00,
2013-01-29 01:02:00,22.0,18.0,-100.00,ESE,104,5.0,7.0,86,0.00,,,0.00,0.000000,,2013-01-29 08:02:00,
2013-01-29 01:11:00,22.0,18.0,-100.00,ESE,104,5.0,7.0,86,0.00,,,0.00,0.000000,,2013-01-29 08:11:00,
2013-01-29 01:21:00,22.0,18.0,-100.00,ESE,104,5.0,7.0,86,0.00,,,0.00,0.000000,,2013-01-29 08:21:00,
2013-01-29 01:31:00,22.0,18.0,-100.00,ESE,104,5.0,7.0,86,0.00,,,0.00,0.000000,,2013-01-29 08:31:00,
2013-01-29 02:01:00,22.0,20.0,-100.00,East,101,4.0,8.0,92,0.00,,,0.00,0.000000,,2013-01-29 09:01:00,
2013-01-29 02:11:00,22.0,20.0,-100.00,East,101,4.0,8.0,92,0.00,,,0.00,0.000000,,2013-01-29 09:11:00,
2013-01-29 02:21:00,22.0,20.0,-100.00,East,101,4.0,8.0,92,0.00,,,0.00,0.000000,,2013-01-29 09:21:00,
2013-01-29 02:31:00,22.0,20.0,-100.00,East,101,4.0,8.0,92,0.00,,,0.00,0.000000,,2013-01-29 09:31:00,
2013-01-29 03:01:00,22.0,20.0,-100.00,East,98,4.0,7.0,93,0.00,,,0.00,0.000000,,2013-01-29 10:01:00,
2013-01-29 03:11:00,22.0,20.0,-100.00,East,98,4.0,7.0,93,0.00,,,0.00,0.000000,,2013-01-29 10:11:00,
2013-01-29 03:21:00,22.0,20.0,-100.00,East,98,4.0,7.0,93,0.00,,,0.00,0.000000,,2013-01-29 10:21:00,
2013-01-29 03:32:00,22.0,20.0,-100.00,East,98,4.0,7.0,93,0.00,,,0.00,0.000000,,2013-01-29 10:32:00,
2013-01-29 04:01:00,22.0,20.0,-100.00,East,96,5.0,7.0,93,0.00,,,0.00,0.000000,,2013-01-29 11:01:00,
2013-01-29 04:11:00,22.0,20.0,-100.00,East,96,5.0,7.0,93,0.00,,,0.00,0.000000,,2013-01-29 11:11:00,
2013-01-29 04:21:00,22.0,20.0,-100.00,East,96,5.0,7.0,93,0.00,,,0.00,0.000000,,2013-01-29 11:21:00,
2013-01-29 04:31:00,22.0,20.0,-100.00,East,96,5.0,7.0,93,0.00,,,0.00,0.000000,,2013-01-29 11:31:00,
2013-01-29 04:52:00,22.0,20.0,-100.00,East,94,5.0,7.0,93,0.00,,,0.00,0.000000,,2013-01-29 11:52:00,
2013-01-29 05:02:00,22.0,20.0,-100.00,East,94,5.0,7.0,93,0.00,,,0.00,0.000000,,2013-01-29 12:02:00,
2013-01-29 05:12:00,22.0,20.0,-100.00,East,94,5.0,7.0,93,0.00,,,0.00,0.000000,,2013-01-29 12:12:00,
2013-01-29 05:22:00,22.0,20.0,-100.00,East,94,5.0,7.0,93,0.00,,,0.00,0.000000,,2013-01-29 12:22:00,
2013-01-29 05:32:00,22.0,20.0,-100.00,East,94,5.0,7.0,93,0.00,,,0.00,0.000000,,2013-01-29 12:32:00,
2013-01-29 06:01:00,22.0,20.0,-100.00,East,96,6.0,8.0,93,0.00,,,0.00,0.000000,,2013-01-29 13:01:00,
2013-01-29 06:11:00,22.0,20.0,-100.00,East,96,6.0,8.0,93,0.00,,,0.00,0.000000,,2013-01-29 13:11:00,
2013-01-29 06:22:00,22.0,20.0,-100.00,East,96,6.0,8.0,93,0.00,,,0.00,0.000000,,2013-01-29 13:22:00,
2013-01-29 06:31:00,22.0,20.0,-100.00,East,96,6.0,8.0,93,0.00,,,0.00,0.000000,,2013-01-29 13:31:00,
2013-01-29 07:02:00,22.0,20.0,-100.00,East,95,3.0,6.0,93,0.00,,,0.00,0.000000,,2013-01-29 14:02:00,
2013-01-29 07:12:00,22.0,20.0,-100.00,East,95,3.0,6.0,93,0.00,,,0.00,0.000000,,2013-01-29 14:12:00,
2013-01-29 07:21:00,22.0,20.0,-100.00,East,95,3.0,6.0,93,0.00,,,0.00,0.000000,,2013-01-29 14:21:00,
2013-01-29 07:32:00,22.0,20.0,-100.00,East,95,3.0,6.0,93,0.00,,,0.00,0.000000,,2013-01-29 14:32:00,
2013-01-29 08:02:00,22.0,20.0,-100.00,East,91,5.0,6.0,93,0.00,,,0.00,0.000000,,2013-01-29 15:02:00,
2013-01-29 08:12:00,22.0,20.0,-100.00,East,91,5.0,6.0,93,0.00,,,0.00,0.000000,,2013-01-29 15:12:00,
2013-01-29 08:22:00,22.0,20.0,-100.00,East,91,5.0,6.0,93,0.00,,,0.00,0.000000,,2013-01-29 15:22:00,
2013-01-29 08:32:00,22.0,20.0,-100.00,East,91,5.0,6.0,93,0.00,,,0.00,0.000000,,2013-01-29 15:32:00,
2013-01-29 09:02:00,23.0,21.0,-100.00,East,81,2.0,5.0,93,0.00,,,0.00,2.000000,,2013-01-29 16:02:00,
2013-01-29 09:12:00,23.0,21.0,-100.00,East,81,2.0,5.0,93,0.00,,,0.00,2.000000,,2013-01-29 16:12:00,
2013-01-29 09:22:00,23.0,21.0,-100.00,East,81,2.0,5.0,93,0.00,,,0.00,2.000000,,2013-01-29 16:22:00,
2013-01-29 09:32:00,23.0,21.0,-100.00,East,81,2.0,5.0,93,0.00,,,0.00,2.000000,,2013-01-29 16:32:00,
2013-01-29 10:03:00,24.0,22.0,-100.00,ESE,106,1.0,3.0,92,0.00,,,0.00,13.000000,,2013-01-29 17:03:00,
2013-01-29 10:12:00,24.0,22.0,-100.00,ESE,106,1.0,3.0,92,0.00,,,0.00,13.000000,,2013-01-29 17:12:00,
2013-01-29 10:21:00,24.0,22.0,-100.00,ESE,106,1.0,3.0,92,0.00,,,0.00,13.000000,,2013-01-29 17:21:00,
2013-01-29 10:32:00,24.0,22.0,-100.00,ESE,106,1.0,3.0,92,0.00,,,0.00,13.000000,,2013-01-29 17:32:00,
2013-01-29 11:03:00,26.0,24.0,-100.00,ESE,120,1.0,4.0,91,0.00,,,0.00,29.000000,,2013-01-29 18:03:00,
2013-01-29 11:12:00,26.0,24.0,-100.00,ESE,120,1.0,4.0,91,0.00,,,0.00,29.000000,,2013-01-29 18:12:00,
2013-01-29 11:22:00,26.0,24.0,-100.00,ESE,120,1.0,4.0,91,0.00,,,0.00,29.000000,,2013-01-29 18:22:00,
2013-01-29 11:33:00,26.0,24.0,-100.00,ESE,120,1.0,4.0,91,0.00,,,0.00,29.000000,,2013-01-29 18:33:00,
2013-01-29 12:02:00,31.0,26.0,-100.00,WSW,240,3.0,5.0,83,0.00,,,0.00,75.000000,,2013-01-29 19:02:00,
2013-01-29 12:11:00,31.0,26.0,-100.00,WSW,240,3.0,5.0,83,0.00,,,0.00,75.000000,,2013-01-29 19:11:00,
2013-01-29 12:22:00,31.0,26.0,-100.00,WSW,240,3.0,5.0,83,0.00,,,0.00,75.000000,,2013-01-29 19:22:00,
2013-01-29 12:31:00,31.0,26.0,-100.00,WSW,240,3.0,5.0,83,0.00,,,0.00,75.000000,,2013-01-29 19:31:00,
2013-01-29 13:02:00,27.0,24.0,-100.00,WNW,290,5.0,11.0,87,0.06,,,0.06,142.000000,,2013-01-29 20:02:00,
2013-01-29 13:12:00,27.0,24.0,-100.00,WNW,290,5.0,11.0,87,0.06,,,0.06,142.000000,,2013-01-29 20:12:00,
2013-01-29 13:22:00,27.0,24.0,-100.00,WNW,290,5.0,11.0,87,0.06,,,0.06,142.000000,,2013-01-29 20:22:00,
2013-01-29 13:32:00,27.0,24.0,-100.00,WNW,290,5.0,11.0,87,0.06,,,0.06,142.000000,,2013-01-29 20:32:00,
2013-01-29 14:02:00,27.0,24.0,-100.00,WNW,297,7.0,12.0,87,0.01,,,0.07,173.000000,,2013-01-29 21:02:00,
2013-01-29 14:12:00,27.0,24.0,-100.00,WNW,297,7.0,12.0,87,0.01,,,0.07,173.000000,,2013-01-29 21:12:00,
2013-01-29 14:22:00,27.0,24.0,-100.00,WNW,297,7.0,12.0,87,0.01,,,0.07,173.000000,,2013-01-29 21:22:00,
2013-01-29 14:32:00,27.0,24.0,-100.00,WNW,297,7.0,12.0,87,0.01,,,0.07,173.000000,,2013-01-29 21:32:00,
2013-01-29 15:02:00,28.0,24.0,-100.00,West,281,4.0,12.0,86,0.00,,,0.07,149.000000,,2013-01-29 22:02:00,
2013-01-29 15:12:00,28.0,24.0,-100.00,West,281,4.0,12.0,86,0.00,,,0.07,149.000000,,2013-01-29 22:12:00,
2013-01-29 15:21:00,28.0,24.0,-100.00,West,281,4.0,12.0,86,0.00,,,0.07,149.000000,,2013-01-29 22:21:00,
2013-01-29 15:32:00,28.0,24.0,-100.00,West,281,4.0,12.0,86,0.00,,,0.07,149.000000,,2013-01-29 22:32:00,
2013-01-29 16:02:00,29.0,25.0,-100.00,WNW,292,5.0,9.0,85,0.00,,,0.07,130.000000,,2013-01-29 23:02:00,
2013-01-29 16:12:00,29.0,25.0,-100.00,WNW,292,5.0,9.0,85,0.00,,,0.07,130.000000,,2013-01-29 23:12:00,
2013-01-29 16:22:00,29.0,25.0,-100.00,WNW,292,5.0,9.0,85,0.00,,,0.07,130.000000,,2013-01-29 23:22:00,
2013-01-29 16:32:00,29.0,25.0,-100.00,WNW,292,5.0,9.0,85,0.00,,,0.07,130.000000,,2013-01-29 23:32:00,
2013-01-29 17:02:00,28.0,24.0,-100.00,WNW,293,3.0,8.0,83,0.00,,,0.07,84.000000,,2013-01-30 00:02:00,
2013-01-29 17:11:00,28.0,24.0,-100.00,WNW,293,3.0,8.0,83,0.00,,,0.07,84.000000,,2013-01-30 00:11:00,
2013-01-29 17:22:00,28.0,24.0,-100.00,WNW,293,3.0,8.0,83,0.00,,,0.07,84.000000,,2013-01-30 00:22:00,
2013-01-29 17:32:00,28.0,24.0,-100.00,WNW,293,3.0,8.0,83,0.00,,,0.07,84.000000,,2013-01-30 00:32:00,
2013-01-29 18:01:00,27.0,23.0,-100.00,WNW,290,2.0,6.0,83,0.00,,,0.07,27.000000,,2013-01-30 01:01:00,
2013-01-29 18:11:00,27.0,23.0,-100.00,WNW,290,2.0,6.0,83,0.00,,,0.07,27.000000,,2013-01-30 01:11:00,
2013-01-29 18:22:00,27.0,23.0,-100.00,WNW,290,2.0,6.0,83,0.00,,,0.07,27.000000,,2013-01-30 01:22:00,
2013-01-29 18:31:00,27.0,23.0,-100.00,WNW,290,2.0,6.0,83,0.00,,,0.07,27.000000,,2013-01-30 01:31:00,
2013-01-29 19:02:00,26.0,22.0,-100.00,East,93,5.0,6.0,85,0.00,,,0.07,1.000000,,2013-01-30 02:02:00,
2013-01-29 19:12:00,26.0,22.0,-100.00,East,93,5.0,6.0,85,0.00,,,0.07,1.000000,,2013-01-30 02:12:00,
2013-01-29 19:21:00,26.0,22.0,-100.00,East,93,5.0,6.0,85,0.00,,,0.07,1.000000,,2013-01-30 02:21:00,
2013-01-29 19:33:00,26.0,22.0,-100.00,East,93,5.0,6.0,85,0.00,,,0.07,1.000000,,2013-01-30 02:33:00,
2013-01-29 20:02:00,26.0,23.0,-100.00,East,94,3.0,7.0,89,0.00,,,0.07,0.000000,,2013-01-30 03:02:00,
2013-01-29 20:11:00,26.0,23.0,-100.00,East,94,3.0,7.0,89,0.00,,,0.07,0.000000,,2013-01-30 03:11:00,
2013-01-29 20:22:00,26.0,23.0,-100.00,East,94,3.0,7.0,89,0.00,,,0.07,0.000000,,2013-01-30 03:22:00,
2013-01-29 20:31:00,26.0,23.0,-100.00,East,94,3.0,7.0,89,0.00,,,0.07,0.000000,,2013-01-30 03:31:00,
2013-01-29 21:02:00,25.0,23.0,-100.00,ESE,104,2.0,6.0,92,0.00,,,0.07,0.000000,,2013-01-30 04:02:00,
2013-01-29 21:11:00,25.0,23.0,-100.00,ESE,104,2.0,6.0,92,0.00,,,0.07,0.000000,,2013-01-30 04:11:00,
2013-01-29 21:22:00,25.0,23.0,-100.00,ESE,104,2.0,6.0,92,0.00,,,0.07,0.000000,,2013-01-30 04:22:00,
2013-01-29 21:31:00,25.0,23.0,-100.00,ESE,104,2.0,6.0,92,0.00,,,0.07,0.000000,,2013-01-30 04:31:00,
2013-01-29 22:03:00,25.0,23.0,-100.00,East,92,3.0,5.0,93,0.00,,,0.07,0.000000,,2013-01-30 05:03:00,
2013-01-29 22:11:00,25.0,23.0,-100.00,East,92,3.0,5.0,93,0.00,,,0.07,0.000000,,2013-01-30 05:11:00,
2013-01-29 22:22:00,25.0,23.0,-100.00,East,92,3.0,5.0,93,0.00,,,0.07,0.000000,,2013-01-30 05:22:00,
2013-01-29 22:32:00,25.0,23.0,-100.00,East,92,3.0,5.0,93,0.00,,,0.07,0.000000,,2013-01-30 05:32:00,
2013-01-29 22:52:00,25.0,23.0,-100.00,ESE,109,3.0,5.0,93,0.00,,,0.07,0.000000,,2013-01-30 05:52:00,
2013-01-29 23:02:00,25.0,23.0,-100.00,ESE,109,3.0,5.0,93,0.00,,,0.07,0.000000,,2013-01-30 06:02:00,
2013-01-29 23:11:00,25.0,23.0,-100.00,ESE,109,3.0,5.0,93,0.00,,,0.07,0.000000,,2013-01-30 06:11:00,
2013-01-29 23:21:00,25.0,23.0,-100.00,ESE,109,3.0,5.0,93,0.00,,,0.07,0.000000,,2013-01-30 06:21:00,
2013-01-29 23:31:00,25.0,23.0,-100.00,ESE,109,3.0,5.0,93,0.00,,,0.07,0.000000,,2013-01-30 06:31:00,